contact:dominique.lefevre@mio.osupytheas.fr, maurice.libes@osupytheas.fr, didier.mallarino@osupytheas.fr
Project:EMSO http://www.emso-fr.org/EMSO-France
Depth: 2436.0 m
Title:EMSO Ligure Ouest : Data MII capteur MICROCAT
DateTime_Computer,Latitude,Longitude,Temperature,Conductivity,Pressure,DateTime_Instrument
DateTime_Computer,Latitude,Longitude,degC,S m-1,dbar,DateTime_Instrument
2019-08-18T00:02:09Z,42.805,6.029,13.2983,4.60014,2469.914,2019-8-18T02:02:30Z
2019-08-18T00:05:13Z,42.805,6.029,13.3008,4.60012,2469.9,2019-8-18T02:05:34Z
2019-08-18T00:08:16Z,42.805,6.029,13.2974,4.60038,2469.9,2019-8-18T02:08:37Z
2019-08-18T00:11:19Z,42.805,6.029,13.2986,4.60045,2469.937,2019-8-18T02:11:40Z
2019-08-18T00:14:22Z,42.805,6.029,13.2991,4.60073,2469.9,2019-8-18T02:14:43Z
2019-08-18T00:17:25Z,42.805,6.029,13.2985,4.60024,2469.914,2019-8-18T02:17:46Z
2019-08-18T00:20:29Z,42.805,6.029,13.2989,4.60072,2469.937,2019-8-18T02:20:50Z
2019-08-18T00:23:32Z,42.805,6.029,13.2983,4.60047,2469.9,2019-8-18T02:23:53Z
2019-08-18T00:26:35Z,42.805,6.029,13.2983,4.60055,2469.89,2019-8-18T02:26:56Z
2019-08-18T00:29:38Z,42.805,6.029,13.2979,4.60031,2469.914,2019-8-18T02:29:59Z
2019-08-18T00:32:42Z,42.805,6.029,13.2980,4.60040,2469.923,2019-8-18T02:33:02Z
2019-08-18T00:35:45Z,42.805,6.029,13.2980,4.60062,2469.876,2019-8-18T02:36:06Z
2019-08-18T00:38:48Z,42.805,6.029,13.2978,4.60062,2469.914,2019-8-18T02:39:09Z
2019-08-18T00:41:51Z,42.805,6.029,13.3002,4.60033,2469.89,2019-8-18T02:42:12Z
2019-08-18T00:44:54Z,42.805,6.029,13.2978,4.60032,2469.9,2019-8-18T02:45:15Z
2019-08-18T00:47:58Z,42.805,6.029,13.2985,4.59999,2469.923,2019-8-18T02:48:18Z
2019-08-18T00:51:01Z,42.805,6.029,13.2979,4.60004,2469.876,2019-8-18T02:51:22Z
2019-08-18T00:54:04Z,42.805,6.029,13.2976,4.60062,2469.89,2019-8-18T02:54:25Z
2019-08-18T00:57:07Z,42.805,6.029,13.2992,4.60054,2469.89,2019-8-18T02:57:28Z
2019-08-18T01:00:10Z,42.805,6.029,13.2984,4.60067,2469.876,2019-8-18T03:00:31Z
2019-08-18T01:03:14Z,42.805,6.029,13.2976,4.60027,2469.876,2019-8-18T03:03:34Z
2019-08-18T01:06:17Z,42.805,6.029,13.2986,4.60006,2469.89,2019-8-18T03:06:38Z
2019-08-18T01:09:20Z,42.805,6.029,13.2983,4.60004,2469.876,2019-8-18T03:09:41Z
2019-08-18T01:12:23Z,42.805,6.029,13.2982,4.60043,2469.89,2019-8-18T03:12:44Z
2019-08-18T01:15:26Z,42.805,6.029,13.2988,4.60082,2469.89,2019-8-18T03:15:47Z
2019-08-18T01:18:29Z,42.805,6.029,13.2985,4.60014,2469.876,2019-8-18T03:18:50Z
2019-08-18T01:21:33Z,42.805,6.029,13.3003,4.59999,2469.867,2019-8-18T03:21:54Z
2019-08-18T01:24:36Z,42.805,6.029,13.2991,4.60067,2469.89,2019-8-18T03:24:57Z
2019-08-18T01:27:39Z,42.805,6.029,13.2987,4.60039,2469.867,2019-8-18T03:28:00Z
2019-08-18T01:30:43Z,42.805,6.029,13.2979,4.60029,2469.853,2019-8-18T03:31:04Z
2019-08-18T01:33:46Z,42.805,6.029,13.3000,4.60029,2469.89,2019-8-18T03:34:07Z
2019-08-18T01:36:49Z,42.805,6.029,13.2970,4.60078,2469.867,2019-8-18T03:37:10Z
2019-08-18T01:39:52Z,42.805,6.029,13.2979,4.60051,2469.83,2019-8-18T03:40:13Z
2019-08-18T01:42:55Z,42.805,6.029,13.2987,4.60030,2469.83,2019-8-18T03:43:16Z
2019-08-18T01:45:59Z,42.805,6.029,13.2986,4.60066,2469.83,2019-8-18T03:46:20Z
2019-08-18T01:49:02Z,42.805,6.029,13.2987,4.60049,2469.844,2019-8-18T03:49:23Z
2019-08-18T01:52:05Z,42.805,6.029,13.2994,4.60064,2469.89,2019-8-18T03:52:26Z
2019-08-18T01:55:08Z,42.805,6.029,13.2997,4.60088,2469.83,2019-8-18T03:55:29Z
2019-08-18T01:58:11Z,42.805,6.029,13.2968,4.60059,2469.83,2019-8-18T03:58:32Z
2019-08-18T02:01:15Z,42.805,6.029,13.2990,4.60044,2469.844,2019-8-18T04:01:35Z
2019-08-18T02:04:18Z,42.805,6.029,13.2999,4.60026,2469.844,2019-8-18T04:04:39Z
2019-08-18T02:07:21Z,42.805,6.029,13.3014,4.60031,2469.867,2019-8-18T04:07:42Z
2019-08-18T02:10:24Z,42.805,6.029,13.2990,4.60029,2469.853,2019-8-18T04:10:45Z
2019-08-18T02:13:27Z,42.805,6.029,13.3003,4.60013,2469.83,2019-8-18T04:13:48Z
2019-08-18T02:16:31Z,42.805,6.029,13.2993,4.59994,2469.876,2019-8-18T04:16:51Z
2019-08-18T02:19:34Z,42.805,6.029,13.2982,4.60026,2469.821,2019-8-18T04:19:55Z
2019-08-18T02:22:37Z,42.805,6.029,13.2978,4.60003,2469.853,2019-8-18T04:22:58Z
2019-08-18T02:25:40Z,42.805,6.029,13.2983,4.60035,2469.83,2019-8-18T04:26:01Z
2019-08-18T02:28:43Z,42.805,6.029,13.3010,4.60009,2469.844,2019-8-18T04:29:04Z
2019-08-18T02:31:47Z,42.805,6.029,13.3036,4.59996,2469.844,2019-8-18T04:32:07Z
2019-08-18T02:34:50Z,42.805,6.029,13.2968,4.60057,2469.806,2019-8-18T04:35:11Z
2019-08-18T02:37:53Z,42.805,6.029,13.2967,4.60029,2469.821,2019-8-18T04:38:14Z
2019-08-18T02:40:56Z,42.805,6.029,13.2976,4.60023,2469.844,2019-8-18T04:41:17Z
2019-08-18T02:43:59Z,42.805,6.029,13.2986,4.60028,2469.844,2019-8-18T04:44:20Z
2019-08-18T02:47:03Z,42.805,6.029,13.2973,4.60020,2469.867,2019-8-18T04:47:23Z
2019-08-18T02:50:06Z,42.805,6.029,13.2977,4.60026,2469.821,2019-8-18T04:50:27Z
2019-08-18T02:53:09Z,42.805,6.029,13.2976,4.60039,2469.844,2019-8-18T04:53:30Z
2019-08-18T02:56:12Z,42.805,6.029,13.2982,4.60038,2469.83,2019-8-18T04:56:33Z
2019-08-18T02:59:15Z,42.805,6.029,13.2994,4.60073,2469.821,2019-8-18T04:59:36Z
2019-08-18T03:02:19Z,42.805,6.029,13.2983,4.60083,2469.797,2019-8-18T05:02:40Z
2019-08-18T03:05:22Z,42.805,6.029,13.3001,4.60016,2469.806,2019-8-18T05:05:43Z
2019-08-18T03:08:25Z,42.805,6.029,13.3008,4.60014,2469.797,2019-8-18T05:08:46Z
2019-08-18T03:11:28Z,42.805,6.029,13.3029,4.60043,2469.83,2019-8-18T05:11:49Z
2019-08-18T03:14:31Z,42.805,6.029,13.3008,4.60016,2469.797,2019-8-18T05:14:52Z
2019-08-18T03:17:35Z,42.805,6.029,13.3024,4.60015,2469.844,2019-8-18T05:17:56Z
2019-08-18T03:20:38Z,42.805,6.029,13.3028,4.60013,2469.806,2019-8-18T05:20:59Z
2019-08-18T03:23:41Z,42.805,6.029,13.3039,4.60026,2469.797,2019-8-18T05:24:02Z
2019-08-18T03:26:44Z,42.805,6.029,13.2989,4.59999,2469.806,2019-8-18T05:27:05Z
2019-08-18T03:29:47Z,42.805,6.029,13.3027,4.60054,2469.821,2019-8-18T05:30:08Z
2019-08-18T03:32:51Z,42.805,6.029,13.3035,4.60014,2469.821,2019-8-18T05:33:11Z
2019-08-18T03:35:54Z,42.805,6.029,13.3031,4.60011,2469.844,2019-8-18T05:36:15Z
2019-08-18T03:38:57Z,42.805,6.029,13.3030,4.60040,2469.821,2019-8-18T05:39:18Z
2019-08-18T03:42:00Z,42.805,6.029,13.3029,4.60003,2469.821,2019-8-18T05:42:21Z
2019-08-18T03:45:03Z,42.805,6.029,13.2968,4.59999,2469.821,2019-8-18T05:45:24Z
2019-08-18T03:48:07Z,42.805,6.029,13.2957,4.59982,2469.821,2019-8-18T05:48:28Z
2019-08-18T03:51:10Z,42.805,6.029,13.2956,4.60003,2469.867,2019-8-18T05:51:31Z
2019-08-18T03:54:13Z,42.805,6.029,13.2957,4.59986,2469.806,2019-8-18T05:54:34Z
2019-08-18T03:57:16Z,42.805,6.029,13.2958,4.59974,2469.783,2019-8-18T05:57:37Z
2019-08-18T04:00:19Z,42.805,6.029,13.2953,4.59964,2469.844,2019-8-18T06:00:40Z
2019-08-18T04:03:23Z,42.805,6.029,13.2955,4.59968,2469.806,2019-8-18T06:03:44Z
2019-08-18T04:06:26Z,42.805,6.029,13.2953,4.59971,2469.797,2019-8-18T06:06:47Z
2019-08-18T04:09:29Z,42.805,6.029,13.2955,4.59973,2469.876,2019-8-18T06:09:50Z
2019-08-18T04:12:32Z,42.805,6.029,13.2953,4.59968,2469.83,2019-8-18T06:12:53Z
2019-08-18T04:15:35Z,42.805,6.029,13.2958,4.59964,2469.844,2019-8-18T06:15:56Z
2019-08-18T04:18:39Z,42.805,6.029,13.2957,4.59959,2469.821,2019-8-18T06:19:00Z
2019-08-18T04:21:42Z,42.805,6.029,13.2956,4.59958,2469.844,2019-8-18T06:22:03Z
2019-08-18T04:24:45Z,42.805,6.029,13.2959,4.59963,2469.844,2019-8-18T06:25:06Z
2019-08-18T04:27:48Z,42.805,6.029,13.2955,4.59956,2469.853,2019-8-18T06:28:09Z
2019-08-18T04:30:52Z,42.805,6.029,13.2954,4.59958,2469.853,2019-8-18T06:31:12Z
2019-08-18T04:33:55Z,42.805,6.029,13.2957,4.59963,2469.844,2019-8-18T06:34:16Z
2019-08-18T04:36:58Z,42.805,6.029,13.2956,4.59958,2469.83,2019-8-18T06:37:19Z
2019-08-18T04:40:01Z,42.805,6.029,13.2954,4.59956,2469.853,2019-8-18T06:40:22Z
2019-08-18T04:43:04Z,42.805,6.029,13.2957,4.59956,2469.83,2019-8-18T06:43:25Z
2019-08-18T04:46:07Z,42.805,6.029,13.2952,4.59955,2469.821,2019-8-18T06:46:28Z
2019-08-18T04:49:11Z,42.805,6.029,13.2958,4.59954,2469.844,2019-8-18T06:49:32Z
2019-08-18T04:52:14Z,42.805,6.029,13.2953,4.59954,2469.853,2019-8-18T06:52:35Z
2019-08-18T04:55:17Z,42.805,6.029,13.2953,4.59957,2469.853,2019-8-18T06:55:38Z
2019-08-18T04:58:20Z,42.805,6.029,13.2958,4.59954,2469.867,2019-8-18T06:58:41Z
2019-08-18T05:01:24Z,42.805,6.029,13.2952,4.59954,2469.821,2019-8-18T07:01:44Z
2019-08-18T05:04:27Z,42.805,6.029,13.2954,4.59955,2469.83,2019-8-18T07:04:48Z
2019-08-18T05:07:30Z,42.805,6.029,13.2953,4.59956,2469.876,2019-8-18T07:07:51Z
2019-08-18T05:10:33Z,42.805,6.029,13.2955,4.59954,2469.853,2019-8-18T07:10:54Z
2019-08-18T05:13:36Z,42.805,6.029,13.2951,4.59954,2469.867,2019-8-18T07:13:57Z
2019-08-18T05:16:39Z,42.805,6.029,13.2954,4.59955,2469.867,2019-8-18T07:17:00Z
2019-08-18T05:19:43Z,42.805,6.029,13.2953,4.59954,2469.853,2019-8-18T07:20:04Z
2019-08-18T05:22:46Z,42.805,6.029,13.2956,4.59954,2469.89,2019-8-18T07:23:07Z
2019-08-18T05:25:49Z,42.805,6.029,13.2957,4.59958,2469.821,2019-8-18T07:26:10Z
2019-08-18T05:28:52Z,42.805,6.029,13.2957,4.59957,2469.853,2019-8-18T07:29:13Z
2019-08-18T05:31:56Z,42.805,6.029,13.2954,4.59958,2469.853,2019-8-18T07:32:17Z
2019-08-18T05:34:59Z,42.805,6.029,13.2953,4.59958,2469.867,2019-8-18T07:35:20Z
2019-08-18T05:38:02Z,42.805,6.029,13.2955,4.59955,2469.853,2019-8-18T07:38:23Z
2019-08-18T05:41:05Z,42.805,6.029,13.2952,4.59958,2469.853,2019-8-18T07:41:26Z
2019-08-18T05:44:08Z,42.805,6.029,13.2953,4.59955,2469.876,2019-8-18T07:44:29Z
2019-08-18T05:47:12Z,42.805,6.029,13.2954,4.59954,2469.9,2019-8-18T07:47:33Z
2019-08-18T05:50:15Z,42.805,6.029,13.2953,4.59966,2469.853,2019-8-18T07:50:36Z
2019-08-18T05:53:18Z,42.805,6.029,13.2952,4.59961,2469.89,2019-8-18T07:53:39Z
2019-08-18T05:56:21Z,42.805,6.029,13.2956,4.59958,2469.914,2019-8-18T07:56:42Z
2019-08-18T05:59:24Z,42.805,6.029,13.2957,4.59956,2469.876,2019-8-18T07:59:45Z
2019-08-18T06:02:28Z,42.805,6.029,13.2960,4.59955,2469.89,2019-8-18T08:02:49Z
2019-08-18T06:05:31Z,42.805,6.029,13.2957,4.59960,2469.914,2019-8-18T08:05:52Z
2019-08-18T06:08:34Z,42.805,6.029,13.2957,4.59956,2469.876,2019-8-18T08:08:55Z
2019-08-18T06:11:38Z,42.805,6.029,13.2955,4.59956,2469.89,2019-8-18T08:11:59Z
2019-08-18T06:14:41Z,42.805,6.029,13.2957,4.59957,2469.89,2019-8-18T08:15:02Z
2019-08-18T06:17:44Z,42.805,6.029,13.2958,4.59958,2469.89,2019-8-18T08:18:05Z
2019-08-18T06:20:47Z,42.805,6.029,13.2955,4.59958,2469.876,2019-8-18T08:21:08Z
2019-08-18T06:23:50Z,42.805,6.029,13.2957,4.59958,2469.89,2019-8-18T08:24:11Z
2019-08-18T06:26:54Z,42.805,6.029,13.2956,4.59960,2469.876,2019-8-18T08:27:15Z
2019-08-18T06:29:57Z,42.805,6.029,13.2954,4.59966,2469.876,2019-8-18T08:30:18Z
2019-08-18T06:33:00Z,42.805,6.029,13.2955,4.59957,2469.9,2019-8-18T08:33:21Z
2019-08-18T06:36:03Z,42.805,6.029,13.2955,4.59964,2469.923,2019-8-18T08:36:24Z
2019-08-18T06:39:06Z,42.805,6.029,13.2956,4.59961,2469.876,2019-8-18T08:39:27Z
2019-08-18T06:42:10Z,42.805,6.029,13.2954,4.59962,2469.96,2019-8-18T08:42:31Z
2019-08-18T06:45:13Z,42.805,6.029,13.2957,4.59958,2469.914,2019-8-18T08:45:34Z
2019-08-18T06:48:16Z,42.805,6.029,13.2958,4.59961,2469.923,2019-8-18T08:48:37Z
2019-08-18T06:51:19Z,42.805,6.029,13.2957,4.59959,2469.914,2019-8-18T08:51:40Z
2019-08-18T06:54:22Z,42.805,6.029,13.2953,4.59964,2469.937,2019-8-18T08:54:43Z
2019-08-18T06:57:26Z,42.805,6.029,13.2953,4.59966,2469.923,2019-8-18T08:57:47Z
2019-08-18T07:00:29Z,42.805,6.029,13.2959,4.59961,2469.923,2019-8-18T09:00:50Z
2019-08-18T07:03:32Z,42.805,6.029,13.2957,4.59963,2469.914,2019-8-18T09:03:53Z
2019-08-18T07:06:35Z,42.805,6.029,13.2961,4.59965,2469.937,2019-8-18T09:06:56Z
2019-08-18T07:09:39Z,42.805,6.029,13.2969,4.59961,2469.937,2019-8-18T09:09:59Z
2019-08-18T07:12:42Z,42.805,6.029,13.2958,4.59966,2469.923,2019-8-18T09:13:03Z
2019-08-18T07:15:45Z,42.805,6.029,13.2960,4.59982,2469.923,2019-8-18T09:16:06Z
2019-08-18T07:18:48Z,42.805,6.029,13.2971,4.59981,2469.923,2019-8-18T09:19:09Z
2019-08-18T07:21:51Z,42.805,6.029,13.2993,4.59975,2469.937,2019-8-18T09:22:12Z
2019-08-18T07:24:54Z,42.805,6.029,13.2990,4.60000,2469.937,2019-8-18T09:25:15Z
2019-08-18T07:27:58Z,42.805,6.029,13.2994,4.59994,2469.96,2019-8-18T09:28:19Z
2019-08-18T07:31:01Z,42.805,6.029,13.2981,4.60019,2469.947,2019-8-18T09:31:22Z
2019-08-18T07:34:04Z,42.805,6.029,13.2989,4.60035,2469.96,2019-8-18T09:34:25Z
2019-08-18T07:37:07Z,42.805,6.029,13.2985,4.60059,2469.97,2019-8-18T09:37:28Z
2019-08-18T07:40:10Z,42.805,6.029,13.2998,4.60040,2469.947,2019-8-18T09:40:31Z
2019-08-18T07:43:14Z,42.805,6.029,13.2989,4.60019,2469.96,2019-8-18T09:43:35Z
2019-08-18T07:46:17Z,42.805,6.029,13.3002,4.60022,2469.9,2019-8-18T09:46:38Z
2019-08-18T07:49:20Z,42.805,6.029,13.3001,4.59983,2469.96,2019-8-18T09:49:41Z
2019-08-18T07:52:23Z,42.805,6.029,13.3006,4.59991,2469.923,2019-8-18T09:52:44Z
2019-08-18T07:55:26Z,42.805,6.029,13.2998,4.60009,2469.984,2019-8-18T09:55:47Z
2019-08-18T07:58:30Z,42.805,6.029,13.3001,4.60023,2470.007,2019-8-18T09:58:51Z
2019-08-18T08:01:33Z,42.805,6.029,13.3006,4.60026,2469.96,2019-8-18T10:01:54Z
2019-08-18T08:04:36Z,42.805,6.029,13.3013,4.60001,2469.947,2019-8-18T10:04:57Z
2019-08-18T08:07:39Z,42.805,6.029,13.3011,4.59976,2469.923,2019-8-18T10:08:00Z
2019-08-18T08:10:42Z,42.805,6.029,13.3003,4.59996,2469.96,2019-8-18T10:11:03Z
2019-08-18T08:13:46Z,42.805,6.029,13.2990,4.60004,2469.947,2019-8-18T10:14:07Z
2019-08-18T08:16:49Z,42.805,6.029,13.2990,4.60016,2469.947,2019-8-18T10:17:10Z
2019-08-18T08:19:52Z,42.805,6.029,13.2988,4.60057,2469.947,2019-8-18T10:20:13Z
2019-08-18T08:22:55Z,42.805,6.029,13.2983,4.60027,2469.97,2019-8-18T10:23:16Z
2019-08-18T08:25:58Z,42.805,6.029,13.2999,4.60027,2469.97,2019-8-18T10:26:19Z
2019-08-18T08:29:02Z,42.805,6.029,13.3001,4.60003,2469.947,2019-8-18T10:29:23Z
2019-08-18T08:32:05Z,42.805,6.029,13.2998,4.60001,2469.984,2019-8-18T10:32:26Z
2019-08-18T08:35:08Z,42.805,6.029,13.2990,4.60036,2469.97,2019-8-18T10:35:29Z
2019-08-18T08:38:11Z,42.805,6.029,13.3000,4.60059,2469.993,2019-8-18T10:38:32Z
2019-08-18T08:41:15Z,42.805,6.029,13.2993,4.60036,2469.923,2019-8-18T10:41:35Z
2019-08-18T08:44:18Z,42.805,6.029,13.2980,4.60048,2469.947,2019-8-18T10:44:39Z
2019-08-18T08:47:21Z,42.805,6.029,13.2997,4.60014,2469.937,2019-8-18T10:47:42Z
2019-08-18T08:50:24Z,42.805,6.029,13.2983,4.60026,2469.96,2019-8-18T10:50:45Z
2019-08-18T08:53:27Z,42.805,6.029,13.3000,4.60043,2469.937,2019-8-18T10:53:48Z
2019-08-18T08:56:30Z,42.805,6.029,13.2983,4.60009,2469.96,2019-8-18T10:56:51Z
2019-08-18T08:59:34Z,42.805,6.029,13.2981,4.60042,2469.937,2019-8-18T10:59:55Z
2019-08-18T09:02:37Z,42.805,6.029,13.2978,4.60024,2469.984,2019-8-18T11:02:58Z
2019-08-18T09:05:40Z,42.805,6.029,13.3006,4.60052,2469.947,2019-8-18T11:06:01Z
2019-08-18T09:08:43Z,42.805,6.029,13.2998,4.60054,2469.923,2019-8-18T11:09:04Z
2019-08-18T09:11:46Z,42.805,6.029,13.3000,4.60047,2469.993,2019-8-18T11:12:07Z
2019-08-18T09:14:50Z,42.805,6.029,13.2993,4.60054,2469.937,2019-8-18T11:15:11Z
2019-08-18T09:17:53Z,42.805,6.029,13.2994,4.60041,2469.923,2019-8-18T11:18:14Z
2019-08-18T09:20:56Z,42.805,6.029,13.2986,4.60030,2469.96,2019-8-18T11:21:17Z
2019-08-18T09:23:59Z,42.805,6.029,13.3000,4.60045,2469.937,2019-8-18T11:24:20Z
2019-08-18T09:27:03Z,42.805,6.029,13.2996,4.59990,2469.947,2019-8-18T11:27:23Z
2019-08-18T09:30:06Z,42.805,6.029,13.2993,4.59997,2469.9,2019-8-18T11:30:27Z
2019-08-18T09:33:09Z,42.805,6.029,13.2993,4.60002,2469.947,2019-8-18T11:33:30Z
2019-08-18T09:36:12Z,42.805,6.029,13.2987,4.60015,2469.984,2019-8-18T11:36:33Z
2019-08-18T09:39:15Z,42.805,6.029,13.3000,4.60043,2469.923,2019-8-18T11:39:36Z
2019-08-18T09:42:19Z,42.805,6.029,13.2991,4.59987,2469.947,2019-8-18T11:42:40Z
2019-08-18T09:45:22Z,42.805,6.029,13.2984,4.60001,2469.933,2019-8-18T11:45:43Z
2019-08-18T09:48:25Z,42.805,6.029,13.2986,4.60029,2469.9,2019-8-18T11:48:46Z
2019-08-18T09:51:28Z,42.805,6.029,13.3001,4.60026,2469.947,2019-8-18T11:51:49Z
2019-08-18T09:54:32Z,42.805,6.029,13.2983,4.60032,2469.89,2019-8-18T11:54:52Z
2019-08-18T09:57:35Z,42.805,6.029,13.2982,4.60054,2469.96,2019-8-18T11:57:56Z
2019-08-18T10:00:38Z,42.805,6.029,13.2984,4.60035,2469.923,2019-8-18T12:00:59Z
2019-08-18T10:03:41Z,42.805,6.029,13.3002,4.60036,2469.914,2019-8-18T12:04:02Z
2019-08-18T10:06:45Z,42.805,6.029,13.3004,4.60018,2469.937,2019-8-18T12:07:06Z
2019-08-18T10:09:48Z,42.805,6.029,13.2990,4.60017,2469.937,2019-8-18T12:10:09Z
2019-08-18T10:12:51Z,42.805,6.029,13.2995,4.60037,2469.914,2019-8-18T12:13:12Z
2019-08-18T10:15:54Z,42.805,6.029,13.2999,4.60009,2469.947,2019-8-18T12:16:15Z
2019-08-18T10:18:57Z,42.805,6.029,13.2993,4.60033,2469.89,2019-8-18T12:19:18Z
2019-08-18T10:22:01Z,42.805,6.029,13.2985,4.60094,2469.89,2019-8-18T12:22:22Z
2019-08-18T10:25:04Z,42.805,6.029,13.2993,4.60069,2469.914,2019-8-18T12:25:25Z
2019-08-18T10:28:07Z,42.805,6.029,13.2989,4.60027,2469.853,2019-8-18T12:28:28Z
2019-08-18T10:31:10Z,42.805,6.029,13.2990,4.60029,2469.923,2019-8-18T12:31:31Z
2019-08-18T10:34:13Z,42.805,6.029,13.2991,4.60039,2469.96,2019-8-18T12:34:34Z
2019-08-18T10:37:17Z,42.805,6.029,13.2979,4.60031,2469.89,2019-8-18T12:37:37Z
2019-08-18T10:40:20Z,42.805,6.029,13.2981,4.60049,2469.923,2019-8-18T12:40:41Z
2019-08-18T10:43:23Z,42.805,6.029,13.2985,4.60020,2469.937,2019-8-18T12:43:44Z
2019-08-18T10:46:26Z,42.805,6.029,13.2985,4.60007,2469.9,2019-8-18T12:46:47Z
2019-08-18T10:49:29Z,42.805,6.029,13.2986,4.60024,2469.914,2019-8-18T12:49:50Z
2019-08-18T10:52:33Z,42.805,6.029,13.2983,4.60041,2469.937,2019-8-18T12:52:54Z
2019-08-18T10:55:36Z,42.805,6.029,13.2987,4.60046,2469.914,2019-8-18T12:55:57Z
2019-08-18T10:58:39Z,42.805,6.029,13.2988,4.60058,2469.853,2019-8-18T12:59:00Z
2019-08-18T11:01:42Z,42.805,6.029,13.2997,4.60015,2469.89,2019-8-18T13:02:03Z
2019-08-18T11:04:45Z,42.805,6.029,13.2998,4.60001,2469.923,2019-8-18T13:05:06Z
2019-08-18T11:07:49Z,42.805,6.029,13.3002,4.60019,2469.876,2019-8-18T13:08:10Z
2019-08-18T11:10:52Z,42.805,6.029,13.3021,4.59999,2469.876,2019-8-18T13:11:13Z
2019-08-18T11:13:55Z,42.805,6.029,13.2983,4.60001,2469.867,2019-8-18T13:14:16Z
2019-08-18T11:16:58Z,42.805,6.029,13.2998,4.59983,2469.9,2019-8-18T13:17:19Z
2019-08-18T11:20:01Z,42.805,6.029,13.2996,4.59985,2469.89,2019-8-18T13:20:22Z
2019-08-18T11:23:05Z,42.805,6.029,13.2993,4.59989,2469.876,2019-8-18T13:23:26Z
2019-08-18T11:26:08Z,42.805,6.029,13.3000,4.59993,2469.89,2019-8-18T13:26:29Z
2019-08-18T11:29:11Z,42.805,6.029,13.2992,4.59978,2469.83,2019-8-18T13:29:32Z
2019-08-18T11:32:14Z,42.805,6.029,13.2986,4.60002,2469.876,2019-8-18T13:32:35Z
2019-08-18T11:35:18Z,42.805,6.029,13.3000,4.60046,2469.853,2019-8-18T13:35:38Z
2019-08-18T11:38:21Z,42.805,6.029,13.3000,4.60025,2469.89,2019-8-18T13:38:42Z
2019-08-18T11:41:24Z,42.805,6.029,13.3009,4.60014,2469.83,2019-8-18T13:41:45Z
2019-08-18T11:44:27Z,42.805,6.029,13.3002,4.59991,2469.89,2019-8-18T13:44:48Z
2019-08-18T11:47:30Z,42.805,6.029,13.3000,4.60001,2469.83,2019-8-18T13:47:51Z
2019-08-18T11:50:34Z,42.805,6.029,13.2993,4.59976,2469.89,2019-8-18T13:50:54Z
2019-08-18T11:53:37Z,42.805,6.029,13.2986,4.60024,2469.876,2019-8-18T13:53:58Z
2019-08-18T11:56:40Z,42.805,6.029,13.2973,4.60030,2469.867,2019-8-18T13:57:01Z
2019-08-18T11:59:43Z,42.805,6.029,13.3002,4.60028,2469.89,2019-8-18T14:00:04Z
2019-08-18T12:02:46Z,42.805,6.029,13.2989,4.60057,2469.844,2019-8-18T14:03:07Z
2019-08-18T12:05:49Z,42.805,6.029,13.2988,4.60014,2469.853,2019-8-18T14:06:10Z
2019-08-18T12:08:53Z,42.805,6.029,13.2980,4.60033,2469.83,2019-8-18T14:09:14Z
2019-08-18T12:11:56Z,42.805,6.029,13.2996,4.59983,2469.867,2019-8-18T14:12:17Z
2019-08-18T12:14:59Z,42.805,6.029,13.3000,4.59987,2469.867,2019-8-18T14:15:20Z
2019-08-18T12:18:02Z,42.805,6.029,13.2996,4.59995,2469.806,2019-8-18T14:18:23Z
2019-08-18T12:21:06Z,42.805,6.029,13.2986,4.59986,2469.844,2019-8-18T14:21:27Z
2019-08-18T12:24:09Z,42.805,6.029,13.2996,4.59996,2469.89,2019-8-18T14:24:30Z
2019-08-18T12:27:12Z,42.805,6.029,13.3000,4.59984,2469.867,2019-8-18T14:27:33Z
2019-08-18T12:30:15Z,42.805,6.029,13.2993,4.59979,2469.853,2019-8-18T14:30:36Z
2019-08-18T12:33:18Z,42.805,6.029,13.2996,4.60026,2469.844,2019-8-18T14:33:39Z
2019-08-18T12:36:22Z,42.805,6.029,13.2995,4.59982,2469.853,2019-8-18T14:36:43Z
2019-08-18T12:39:25Z,42.805,6.029,13.2958,4.59975,2469.83,2019-8-18T14:39:46Z
2019-08-18T12:42:28Z,42.805,6.029,13.2961,4.59991,2469.844,2019-8-18T14:42:49Z
2019-08-18T12:45:31Z,42.805,6.029,13.2996,4.59975,2469.853,2019-8-18T14:45:52Z
2019-08-18T12:48:35Z,42.805,6.029,13.3011,4.59986,2469.83,2019-8-18T14:48:55Z
2019-08-18T12:51:38Z,42.805,6.029,13.3063,4.59991,2469.783,2019-8-18T14:51:59Z
2019-08-18T12:54:41Z,42.805,6.029,13.2986,4.60000,2469.83,2019-8-18T14:55:02Z
2019-08-18T12:57:44Z,42.805,6.029,13.2966,4.59976,2469.797,2019-8-18T14:58:05Z
2019-08-18T13:00:47Z,42.805,6.029,13.3012,4.60001,2469.844,2019-8-18T15:01:08Z
2019-08-18T13:03:50Z,42.805,6.029,13.2958,4.59964,2469.806,2019-8-18T15:04:11Z
2019-08-18T13:06:54Z,42.805,6.029,13.2960,4.59965,2469.806,2019-8-18T15:07:15Z
2019-08-18T13:09:57Z,42.805,6.029,13.2962,4.59975,2469.83,2019-8-18T15:10:18Z
2019-08-18T13:13:00Z,42.805,6.029,13.2971,4.60009,2469.806,2019-8-18T15:13:21Z
2019-08-18T13:16:03Z,42.805,6.029,13.2995,4.59988,2469.821,2019-8-18T15:16:24Z
2019-08-18T13:19:06Z,42.805,6.029,13.2978,4.60006,2469.83,2019-8-18T15:19:27Z
2019-08-18T13:22:10Z,42.805,6.029,13.2996,4.59977,2469.844,2019-8-18T15:22:31Z
2019-08-18T13:25:13Z,42.805,6.029,13.3002,4.60019,2469.806,2019-8-18T15:25:34Z
2019-08-18T13:28:16Z,42.805,6.029,13.2964,4.59995,2469.821,2019-8-18T15:28:37Z
2019-08-18T13:31:19Z,42.805,6.029,13.2960,4.59964,2469.821,2019-8-18T15:31:40Z
2019-08-18T13:34:22Z,42.805,6.029,13.2968,4.59987,2469.821,2019-8-18T15:34:43Z
2019-08-18T13:37:26Z,42.805,6.029,13.3026,4.59980,2469.783,2019-8-18T15:37:47Z
2019-08-18T13:40:29Z,42.805,6.029,13.2986,4.59988,2469.806,2019-8-18T15:40:50Z
2019-08-18T13:43:32Z,42.805,6.029,13.3006,4.59985,2469.783,2019-8-18T15:43:53Z
2019-08-18T13:46:35Z,42.805,6.029,13.2957,4.59972,2469.797,2019-8-18T15:46:56Z
2019-08-18T13:49:39Z,42.805,6.029,13.2961,4.59963,2469.783,2019-8-18T15:49:59Z
2019-08-18T13:52:42Z,42.805,6.029,13.2969,4.59961,2469.806,2019-8-18T15:53:03Z
2019-08-18T13:55:45Z,42.805,6.029,13.2957,4.59962,2469.821,2019-8-18T15:56:06Z
2019-08-18T13:58:48Z,42.805,6.029,13.2957,4.59958,2469.806,2019-8-18T15:59:09Z
2019-08-18T14:01:51Z,42.805,6.029,13.2961,4.59966,2469.783,2019-8-18T16:02:12Z
2019-08-18T14:04:55Z,42.805,6.029,13.2971,4.59961,2469.797,2019-8-18T16:05:15Z
2019-08-18T14:07:58Z,42.805,6.029,13.2959,4.59964,2469.769,2019-8-18T16:08:19Z
2019-08-18T14:11:01Z,42.805,6.029,13.2953,4.59962,2469.806,2019-8-18T16:11:22Z
2019-08-18T14:14:04Z,42.805,6.029,13.2965,4.59961,2469.797,2019-8-18T16:14:25Z
2019-08-18T14:17:07Z,42.805,6.029,13.2954,4.59959,2469.797,2019-8-18T16:17:28Z
2019-08-18T14:20:10Z,42.805,6.029,13.2956,4.59956,2469.806,2019-8-18T16:20:31Z
2019-08-18T14:23:14Z,42.805,6.029,13.2953,4.59954,2469.806,2019-8-18T16:23:35Z
2019-08-18T14:26:17Z,42.805,6.029,13.2954,4.59959,2469.783,2019-8-18T16:26:38Z
2019-08-18T14:29:20Z,42.805,6.029,13.2954,4.59967,2469.806,2019-8-18T16:29:41Z
2019-08-18T14:32:23Z,42.805,6.029,13.2954,4.59957,2469.75,2019-8-18T16:32:44Z
2019-08-18T14:35:26Z,42.805,6.029,13.2955,4.59959,2469.821,2019-8-18T16:35:47Z
2019-08-18T14:38:30Z,42.805,6.029,13.2953,4.59953,2469.783,2019-8-18T16:38:51Z
2019-08-18T14:41:33Z,42.805,6.029,13.2952,4.59960,2469.783,2019-8-18T16:41:54Z
2019-08-18T14:44:36Z,42.805,6.029,13.2953,4.59961,2469.797,2019-8-18T16:44:57Z
2019-08-18T14:47:39Z,42.805,6.029,13.2956,4.59956,2469.806,2019-8-18T16:48:00Z
2019-08-18T14:50:43Z,42.805,6.029,13.2957,4.59957,2469.806,2019-8-18T16:51:03Z
2019-08-18T14:53:46Z,42.805,6.029,13.2955,4.59954,2469.75,2019-8-18T16:54:07Z
2019-08-18T14:56:49Z,42.805,6.029,13.2955,4.59954,2469.821,2019-8-18T16:57:10Z
2019-08-18T14:59:52Z,42.805,6.029,13.2953,4.59964,2469.806,2019-8-18T17:00:13Z
2019-08-18T15:02:55Z,42.805,6.029,13.2955,4.59954,2469.821,2019-8-18T17:03:16Z
2019-08-18T15:05:58Z,42.805,6.029,13.2954,4.59956,2469.797,2019-8-18T17:06:19Z
2019-08-18T15:09:02Z,42.805,6.029,13.2957,4.59960,2469.821,2019-8-18T17:09:23Z
2019-08-18T15:12:05Z,42.805,6.029,13.2951,4.59962,2469.773,2019-8-18T17:12:26Z
2019-08-18T15:15:08Z,42.805,6.029,13.2956,4.59954,2469.797,2019-8-18T17:15:29Z